Weather History for VDPP - March, 2013

Change the Weather History Date:

Wednesday, March 6, 2013

  Actual Average Record
Temperature  
Mean Temperature 84 °F -  
Max Temperature 95 °F 90 °F 95 °F (2003)
Min Temperature 72 °F 76 °F 66 °F (2005)
Cooling Degree Days 18    
Growing Degree Days 34 (Base 50)    
Moisture  
Dew Point 60 °F    
Average Humidity 42    
Maximum Humidity 65    
Minimum Humidity 26    
Precipitation  
Precipitation 0.00 in - - ()
Sea Level Pressure  
Sea Level Pressure 29.89 in    
Wind  
Wind Speed 7 mph ()    
Max Wind Speed 13 mph    
Max Gust Speed -    
Visibility 5.5 miles    
Events      
Averages and records for this station are not official NWS values.
T = Trace of Precipitation, MM = Missing Value Source: Averaged Metar Reports

Daily Weather History Graph

Daily Weather History Graph

Search for Another Location

Airport or City:

Trip Planner

Search our weather history database for the weather conditions in past years. The results will help you decide how hot, cold, wet, or windy it might be!

Date:

Astronomy

Mar. 06, 2013 Rise Set
Actual Time 6:13 AM ICT 6:10 PM ICT
Civil Twilight 5:52 AM ICT 6:31 PM ICT
Nautical Twilight 5:27 AM ICT 6:56 PM ICT
Astronomical Twilight 5:02 AM ICT 7:20 PM ICT
Moon 1:08 AM ICT (3/6) 1:01 PM ICT (3/6)
Length of Visible Light 12h 39m
Length of Day
11h 57m
Waning Crescent, 35% of the Moon is Illuminated
Mar 6
Waning Crescent
Mar 12
New
Mar 20
First Quarter
Mar 27
Full
Apr 3
Last Quarter

Hourly Weather History & Observations

Time (ICT) Temp. Heat Index Dew Point Humidity Pressure Visibility Wind Dir Wind Speed Gust Speed Precip Events Conditions
12:00 AM 80.6 °F 83.2 °F 68.0 °F 65% 29.92 in 5.6 mi NNE 9.2 mph - N/A   Unknown
12:30 AM 80.6 °F 83.2 °F 68.0 °F 65% 29.92 in 5.6 mi NNE 9.2 mph - N/A   Unknown
1:00 AM 80.6 °F 83.2 °F 68.0 °F 65% 29.89 in 5.6 mi NNE 9.2 mph - N/A   Unknown
6:00 AM 77.0 °F - 62.6 °F 61% 29.92 in 5.6 mi NE 6.9 mph - N/A   Unknown
7:00 AM 75 °F - 65 °F 62% 29.98 in 3 mi North 2.2 mph - -   Mist
7:00 AM 77.0 °F - 62.6 °F 61% 29.95 in 5.6 mi NE 8.1 mph - N/A   Unknown
7:30 AM 78.8 °F - 60.8 °F 54% 29.95 in 5.6 mi NE 8.1 mph - N/A   Unknown
8:00 AM 78.8 °F - 59.0 °F 51% 29.95 in 5.6 mi ENE 11.5 mph - N/A   Unknown
8:30 AM 80.6 °F 81.1 °F 59.0 °F 48% 29.95 in 5.6 mi East 12.7 mph - N/A   Unknown
9:00 AM 82.4 °F 82.9 °F 60.8 °F 48% 29.98 in - NNE 9.2 mph - N/A   Clear
9:30 AM 82.4 °F 82.9 °F 60.8 °F 48% 29.98 in - NNE 10.4 mph - N/A   Clear
10:00 AM 84.2 °F 84.4 °F 60.8 °F 45% 29.98 in - NE 6.9 mph - N/A   Clear
10:30 AM 86.0 °F 86.1 °F 60.8 °F 43% 29.95 in - NE 9.2 mph - N/A   Clear
11:00 AM 86.0 °F 85.4 °F 59.0 °F 40% 29.95 in - NE 8.1 mph - N/A   Clear
11:30 AM 87.8 °F 87.1 °F 59.0 °F 38% 29.92 in - North 5.8 mph - N/A   Clear
12:00 PM 89.6 °F 88.9 °F 59.0 °F 36% 29.89 in - ENE 5.8 mph - N/A   Clear
12:30 PM 89.6 °F 88.9 °F 59.0 °F 36% 29.89 in - NNE 8.1 mph - N/A   Clear
1:00 PM 89.6 °F 88.9 °F 59.0 °F 36% 29.86 in - NNW 6.9 mph - N/A   Clear
1:30 PM 93.2 °F 92.6 °F 59.0 °F 32% 29.86 in - NNE 4.6 mph - N/A   Clear
2:00 PM 93.2 °F 91.9 °F 57.2 °F 30% 29.83 in - NNE 10.4 mph - N/A   Clear
2:30 PM 93.2 °F 91.9 °F 57.2 °F 30% 29.83 in - North 8.1 mph - N/A   Clear
3:00 PM 93.2 °F 91.9 °F 57.2 °F 30% 29.80 in - ENE 10.4 mph - N/A   Clear
3:30 PM 93.2 °F 91.9 °F 57.2 °F 30% 29.80 in - North 8.1 mph - N/A   Clear
4:00 PM 95.0 °F 93.7 °F 57.2 °F 28% 29.80 in - NNE 8.1 mph - N/A   Clear
4:30 PM 95.0 °F 93.0 °F 55.4 °F 26% 29.80 in - NNE 8.1 mph - N/A   Clear
5:00 PM 95.0 °F 93.0 °F 55.4 °F 26% 29.80 in - NNE 8.1 mph - N/A   Clear
5:30 PM 93.2 °F 91.9 °F 57.2 °F 30% 29.80 in - ENE 4.6 mph - N/A   Clear
6:00 PM 93.2 °F 91.9 °F 57.2 °F 30% 29.83 in 5.6 mi NNW 5.8 mph - N/A   Unknown
6:30 PM 91.4 °F 89.9 °F 57.2 °F 31% 29.83 in 5.6 mi NW 4.6 mph - N/A   Unknown
7:00 PM 91.4 °F 90.7 °F 59.0 °F 34% 29.83 in 5.6 mi NW 3.5 mph - N/A   Unknown
7:30 PM 89.6 °F 88.9 °F 59.0 °F 36% 29.86 in 5.6 mi NW 2.3 mph - N/A   Unknown
8:00 PM 89.6 °F 89.5 °F 60.8 °F 38% 29.86 in 5.6 mi NNW 3.5 mph - N/A   Unknown
8:30 PM 89.6 °F 88.9 °F 59.0 °F 36% 29.86 in 5.6 mi North 2.3 mph - N/A   Partly Cloudy
9:00 PM 87.8 °F 87.6 °F 60.8 °F 40% 29.89 in 5.6 mi North 2.3 mph - N/A   Partly Cloudy
9:30 PM 87.8 °F 87.6 °F 60.8 °F 40% 29.89 in 5.6 mi South 2.3 mph - N/A   Partly Cloudy
10:00 PM 87.8 °F 88.5 °F 62.6 °F 43% 29.89 in 5.6 mi NW 3.5 mph - N/A   Partly Cloudy
10:30 PM 84.2 °F 85.6 °F 64.4 °F 51% 29.89 in 5.6 mi North 2.3 mph - N/A   Partly Cloudy
11:00 PM 86.0 °F 87.3 °F 64.4 °F 48% 29.89 in 5.6 mi NW 2.3 mph - N/A   Partly Cloudy
11:30 PM 84.2 °F 85.6 °F 64.4 °F 51% 29.89 in 5.6 mi South 11.5 mph - N/A   Partly Cloudy